Preview of NWS' New Version of Forecast
This preview is not operational and should not be used for support decisions.

Regional Weather Roundup (RWR)

Issued by National Weather Service (NWS)

                            
000
ASUS43 KTOP 250859
RWRKS 

WEATHER ROUNDUP FOR KANSAS
NATIONAL WEATHER SERVICE GOODLAND KS
400 AM CDT SUN AUG 25 2019

NOTE:  "FAIR" INDICATES FEW OR NO CLOUDS BELOW 12,000 FEET WITH NO
SIGNIFICANT WEATHER AND/OR OBSTRUCTIONS TO VISIBILITY.

KSZ001>006-013>018-027>032-041>047-251000-
NORTHWEST KANSAS
  
CITY           SKY/WX    TMP DP  RH WIND       PRES   REMARKS
GOODLAND       FAIR      61  61 100 SE3       29.93F                  
HAYS           MOCLDY    62  61  96 SE6       29.63F                  
HILL CITY      CLEAR     62  60  93 E5        29.89F                  
RUSSELL        LGT RAIN  64  61  90 NE7       29.86F                  
$$

KSZ061>065-074>080-084>089-251000-
SOUTHWEST KANSAS
  
CITY           SKY/WX    TMP DP  RH WIND       PRES   REMARKS
DODGE CITY     PTCLDY    70  69  97 NE5       29.88F FOG              
GARDEN CITY    CLEAR     68  66  93 CALM      29.88F                  
GREAT BEND     TSTM      62  61  96 NE13      29.86F                  
LIBERAL        CLEAR     70  67  90 S13       29.90F                  
$$

KSZ066>073-081>083-090>101-251000-
SOUTHEAST KANSAS
  
CITY           SKY/WX    TMP DP  RH WIND       PRES   REMARKS
CHANUTE        CLOUDY    72  69  90 SE12      29.93F FOG              
COFFEYVILLE    CLOUDY    73  70  90 SE7       29.91F                  
HUTCHINSON     TSTM      63  61  93 E9        29.88F                  
MEDICINE LODGE   N/A     67  63  87 E12G21    29.85F                  
NEWTON         LGT RAIN  62  61  96 CALM      29.93F                  
PARSONS        CLOUDY    72  71  97 VRB6      29.93F                  
WICHITA INTL   TSTM      64  61  90 NE9       29.89F                  
WICHITA JABRA  TSTM      63  62  97 E7        29.91F FOG              
WICHITA MCCONL TSTM      63  61  94 N9        29.92  FOG              
WINFIELD       CLOUDY    73  72  96 SE9G18    29.90F                  
$$

KSZ007>012-019>026-033>040-048>060-102>105-251000-
NORTHEAST KANSAS
  
CITY           SKY/WX    TMP DP  RH WIND       PRES   REMARKS
CONCORDIA      LGT RAIN  67  65  93 NE5       29.90R                  
EMPORIA        LGT RAIN  67  67 100 SE9       29.90R                  
LAWRENCE       CLOUDY    70  63  78 SE6       29.94F                  
MANHATTAN      TSTM      67  65  93 S8        29.89R FOG              
OLATHE IND     CLOUDY    68  63  84 E13       29.95F                  
OLATHE EXE     CLOUDY    67  62  84 SE9       29.95F                  
SALINA         RAIN      64  61  90 S10       29.86F                  
TOPEKA BILLARD CLOUDY    67  64  90 E10       29.91F                  
TOPEKA FORBES  CLOUDY    68  64  87 E13       29.90F                  
$$